| time (UTC) | temp F | wind direction | speed MPH | gust MPH | rain 1hr in | rain 24hr in | rain mn in | humidity % | barometer mb |
| 20260507104521 | 46 | 248 | 2.0 | 3.0 | 0.00 | 0.59 | 0.15 | 93 | 1006.8 |
| 20260507103516 | 46 | 270 | 1.0 | 2.0 | 0.00 | 0.59 | 0.15 | 94 | 1006.2 |
| 20260507102516 | 46 | 270 | 1.0 | 3.0 | 0.00 | 0.59 | 0.15 | 94 | 1006.2 |
| 20260507101516 | 46 | 270 | 2.0 | 3.0 | 0.00 | 0.59 | 0.15 | 95 | 1006.4 |
| 20260507100516 | 46 | 270 | 1.0 | 3.0 | 0.00 | 0.59 | 0.15 | 95 | 1005.7 |
| 20260507095536 | 46 | 270 | 2.0 | 4.0 | 0.00 | 0.59 | 0.15 | 95 | 1006.1 |
| 20260507094519 | 46 | 270 | 1.0 | 3.0 | 0.00 | 0.59 | 0.15 | 95 | 1005.4 |
| 20260507093536 | 47 | 293 | 1.0 | 3.0 | 0.00 | 0.59 | 0.15 | 95 | 1005.4 |
| 20260507092516 | 47 | 248 | 2.0 | 4.0 | 0.00 | 0.59 | 0.15 | 96 | 1005.8 |
| 20260507091516 | 48 | 270 | 2.0 | 5.0 | 0.00 | 0.59 | 0.15 | 96 | 1005.9 |
| 20260507090516 | 48 | 270 | 1.0 | 3.0 | 0.00 | 0.59 | 0.15 | 96 | 1005.8 |
| 20260507085516 | 48 | 338 | 1.0 | 2.0 | 0.00 | 0.59 | 0.15 | 96 | 1005.7 |
| 20260507084515 | 48 | 338 | 1.0 | 2.0 | 0.00 | 0.59 | 0.15 | 96 | 1005.5 |
| 20260507083536 | 48 | 0.0 | 2.0 | 0.00 | 0.59 | 0.15 | 96 | 1005.9 | |
| 20260507082516 | 48 | 315 | 1.0 | 3.0 | 0.00 | 0.59 | 0.15 | 96 | 1005.3 |
| 20260507081515 | 48 | 315 | 2.0 | 4.0 | 0.00 | 0.59 | 0.15 | 96 | 1005.2 |
| 20260507080516 | 48 | 338 | 1.0 | 3.0 | 0.00 | 0.59 | 0.15 | 96 | 1005.4 |
| 20260507075536 | 48 | 270 | 1.0 | 3.0 | 0.00 | 0.59 | 0.15 | 96 | 1005.3 |
| 20260507074518 | 48 | 338 | 2.0 | 5.0 | 0.00 | 0.59 | 0.15 | 96 | 1005.1 |
| 20260507073517 | 48 | 338 | 2.0 | 4.0 | 0.00 | 0.59 | 0.15 | 96 | 1005.3 |
| 20260507072517 | 48 | 315 | 3.0 | 7.0 | 0.00 | 0.59 | 0.15 | 96 | 1005.0 |
| 20260507071517 | 49 | 338 | 3.0 | 7.0 | 0.00 | 0.59 | 0.15 | 96 | 1004.9 |
| 20260507070517 | 50 | 338 | 1.0 | 4.0 | 0.00 | 0.59 | 0.15 | 97 | 1004.9 |
| 20260507065517 | 50 | 0.0 | 1.0 | 0.01 | 0.59 | 0.15 | 97 | 1004.7 | |
| 20260507064517 | 50 | 338 | 1.0 | 3.0 | 0.01 | 0.59 | 0.15 | 97 | 1004.3 |
| 20260507063518 | 50 | 315 | 1.0 | 3.0 | 0.02 | 0.59 | 0.15 | 97 | 1004.4 |
| 20260507062517 | 50 | 0.0 | 2.0 | 0.02 | 0.59 | 0.15 | 97 | 1004.7 | |
| 20260507061517 | 50 | 338 | 1.0 | 4.0 | 0.03 | 0.59 | 0.15 | 97 | 1004.6 |
| 20260507060517 | 50 | 293 | 1.0 | 3.0 | 0.04 | 0.59 | 0.15 | 97 | 1004.3 |
| 20260507055537 | 50 | 338 | 1.0 | 4.0 | 0.04 | 0.58 | 0.14 | 97 | 1004.2 |
| 20260507054517 | 50 | 315 | 2.0 | 4.0 | 0.08 | 0.58 | 0.14 | 97 | 1004.3 |
| 20260507053517 | 50 | 270 | 2.0 | 5.0 | 0.11 | 0.57 | 0.13 | 97 | 1004.2 |
| 20260507052517 | 51 | 248 | 2.0 | 5.0 | 0.11 | 0.57 | 0.13 | 97 | 1004.3 |
| 20260507051517 | 51 | 315 | 2.0 | 6.0 | 0.11 | 0.56 | 0.12 | 97 | 1004.2 |
| 20260507050517 | 51 | 315 | 1.0 | 3.0 | 0.11 | 0.55 | 0.11 | 97 | 1004.6 |
| 20260507045517 | 51 | 248 | 3.0 | 6.0 | 0.11 | 0.54 | 0.10 | 97 | 1004.9 |
| 20260507044537 | 52 | 248 | 3.0 | 9.0 | 0.07 | 0.50 | 0.06 | 97 | 1004.8 |
| 20260507043517 | 52 | 248 | 2.0 | 4.0 | 0.03 | 0.46 | 0.02 | 97 | 1004.3 |
| 20260507042517 | 52 | 293 | 2.0 | 6.0 | 0.03 | 0.46 | 0.02 | 97 | 1004.0 |
| 20260507041517 | 52 | 248 | 2.0 | 4.0 | 0.03 | 0.45 | 0.01 | 97 | 1004.2 |
| 20260507040517 | 53 | 248 | 3.0 | 9.0 | 0.02 | 0.44 | 0.00 | 97 | 1004.2 |
| 20260507035516 | 53 | 225 | 3.0 | 8.0 | 0.02 | 0.43 | 0.43 | 97 | 1003.8 |
| 20260507034517 | 53 | 203 | 3.0 | 8.0 | 0.02 | 0.43 | 0.43 | 97 | 1003.6 |
| 20260507033537 | 53 | 180 | 2.0 | 3.0 | 0.02 | 0.43 | 0.43 | 97 | 1003.6 |
| 20260507032517 | 52 | 180 | 2.0 | 5.0 | 0.02 | 0.43 | 0.43 | 97 | 1003.6 |
| 20260507031516 | 52 | 158 | 2.0 | 5.0 | 0.01 | 0.42 | 0.42 | 97 | 1003.6 |
| 20260507030516 | 52 | 158 | 2.0 | 4.0 | 0.02 | 0.42 | 0.42 | 97 | 1003.7 |
| 20260507025516 | 52 | 180 | 2.0 | 4.0 | 0.01 | 0.41 | 0.41 | 97 | 1003.9 |
| 20260507024516 | 52 | 180 | 3.0 | 6.0 | 0.01 | 0.41 | 0.41 | 97 | 1004.0 |
| 20260507023516 | 51 | 158 | 3.0 | 5.0 | 0.02 | 0.41 | 0.41 | 97 | 1004.1 |
| 20260507022516 | 51 | 158 | 3.0 | 6.0 | 0.02 | 0.41 | 0.41 | 96 | 1004.2 |
| 20260507021517 | 51 | 180 | 3.0 | 6.0 | 0.02 | 0.41 | 0.41 | 96 | 1004.4 |
| 20260507020516 | 51 | 158 | 4.0 | 7.0 | 0.02 | 0.40 | 0.40 | 96 | 1004.5 |
| 20260507015516 | 51 | 135 | 4.0 | 7.0 | 0.03 | 0.40 | 0.40 | 96 | 1004.7 |
| 20260507014516 | 52 | 158 | 4.0 | 8.0 | 0.04 | 0.40 | 0.40 | 96 | 1004.8 |
| 20260507013558 | 52 | 180 | 5.0 | 9.0 | 0.03 | 0.39 | 0.39 | 96 | 1004.9 |
| 20260507012516 | 52 | 180 | 5.0 | 9.0 | 0.03 | 0.39 | 0.39 | 96 | 1004.9 |
| 20260507011516 | 53 | 180 | 3.0 | 7.0 | 0.03 | 0.39 | 0.39 | 96 | 1004.9 |
| 20260507010519 | 53 | 180 | 4.0 | 11.0 | 0.02 | 0.38 | 0.38 | 96 | 1005.0 |
| 20260507005516 | 53 | 180 | 4.0 | 12.0 | 0.01 | 0.37 | 0.37 | 96 | 1005.4 |
| 20260507004536 | 53 | 180 | 4.0 | 8.0 | 0.00 | 0.36 | 0.36 | 96 | 1005.3 |
| 20260507003516 | 53 | 158 | 4.0 | 7.0 | 0.00 | 0.36 | 0.36 | 96 | 1005.5 |
| 20260507002516 | 54 | 158 | 3.0 | 7.0 | 0.00 | 0.36 | 0.36 | 96 | 1005.3 |
| 20260507001516 | 54 | 158 | 3.0 | 5.0 | 0.00 | 0.36 | 0.36 | 96 | 1005.3 |
| 20260507000516 | 54 | 158 | 4.0 | 7.0 | 0.00 | 0.36 | 0.36 | 96 | 1005.3 |
| 20260506235516 | 54 | 180 | 4.0 | 10.0 | 0.01 | 0.36 | 0.36 | 96 | 1005.5 |
| 20260506234516 | 54 | 180 | 5.0 | 9.0 | 0.01 | 0.36 | 0.36 | 95 | 1005.6 |
| 20260506233516 | 54 | 203 | 5.0 | 12.0 | 0.02 | 0.36 | 0.36 | 96 | 1005.7 |
| 20260506232516 | 54 | 180 | 5.0 | 13.0 | 0.02 | 0.36 | 0.36 | 96 | 1005.6 |
| 20260506231536 | 54 | 180 | 5.0 | 11.0 | 0.03 | 0.36 | 0.36 | 95 | 1005.7 |
| 20260506230516 | 54 | 203 | 5.0 | 12.0 | 0.05 | 0.36 | 0.36 | 95 | 1005.8 |
| 20260506225516 | 54 | 180 | 6.0 | 12.0 | 0.07 | 0.35 | 0.35 | 95 | 1005.9 |
| 20260506224516 | 54 | 180 | 5.0 | 10.0 | 0.10 | 0.35 | 0.35 | 95 | 1006.0 |
| 20260506223535 | 54 | 180 | 5.0 | 15.0 | 0.13 | 0.34 | 0.34 | 95 | 1006.0 |
| 20260506222516 | 54 | 203 | 5.0 | 10.0 | 0.16 | 0.34 | 0.34 | 95 | 1006.0 |
| 20260506221517 | 54 | 180 | 5.0 | 15.0 | 0.17 | 0.33 | 0.33 | 95 | 1006.2 |
| 20260506220516 | 53 | 158 | 7.0 | 14.0 | 0.17 | 0.31 | 0.31 | 95 | 1006.0 |
| 20260506215516 | 54 | 158 | 8.0 | 15.0 | 0.15 | 0.28 | 0.28 | 95 | 1005.8 |
| 20260506214536 | 54 | 158 | 6.0 | 13.0 | 0.13 | 0.25 | 0.25 | 95 | 1005.8 |
| 20260506213515 | 54 | 180 | 5.0 | 11.0 | 0.11 | 0.21 | 0.21 | 95 | 1006.1 |
| 20260506212516 | 54 | 180 | 7.0 | 16.0 | 0.09 | 0.18 | 0.18 | 95 | 1006.6 |
| 20260506211516 | 54 | 180 | 4.0 | 11.0 | 0.12 | 0.16 | 0.16 | 95 | 1006.9 |
| 20260506210557 | 54 | 180 | 3.0 | 6.0 | 0.11 | 0.14 | 0.14 | 95 | 1006.9 |
| 20260506205515 | 54 | 158 | 4.0 | 7.0 | 0.11 | 0.13 | 0.13 | 94 | 1006.6 |
| 20260506204517 | 54 | 158 | 3.0 | 7.0 | 0.11 | 0.12 | 0.12 | 94 | 1006.9 |
| 20260506203517 | 54 | 180 | 3.0 | 6.0 | 0.09 | 0.10 | 0.10 | 94 | 1007.1 |
| 20260506202537 | 54 | 180 | 3.0 | 6.0 | 0.09 | 0.09 | 0.09 | 94 | 1007.2 |
| 20260506201538 | 54 | 158 | 2.0 | 4.0 | 0.04 | 0.04 | 0.04 | 93 | 1007.3 |
| 20260506200517 | 54 | 158 | 2.0 | 4.0 | 0.03 | 0.03 | 0.03 | 93 | 1007.1 |
| 20260506195537 | 54 | 158 | 3.0 | 5.0 | 0.02 | 0.02 | 0.02 | 92 | 1007.2 |
| 20260506194517 | 54 | 158 | 3.0 | 6.0 | 0.01 | 0.01 | 0.01 | 91 | 1007.4 |
| 20260506193537 | 55 | 158 | 4.0 | 9.0 | 0.01 | 0.01 | 0.01 | 90 | 1007.1 |
| 20260506192517 | 55 | 180 | 4.0 | 10.0 | 0.00 | 0.00 | 0.00 | 88 | 1007.1 |
| 20260506191517 | 56 | 180 | 6.0 | 13.0 | 0.00 | 0.00 | 0.00 | 86 | 1007.3 |
| 20260506190517 | 56 | 180 | 7.0 | 14.0 | 0.00 | 0.00 | 0.00 | 84 | 1007.3 |
| 20260506185517 | 57 | 158 | 6.0 | 13.0 | 0.00 | 0.00 | 0.00 | 84 | 1007.3 |
| 20260506184517 | 57 | 180 | 6.0 | 15.0 | 0.00 | 0.00 | 0.00 | 83 | 1007.4 |
| 20260506183537 | 58 | 180 | 5.0 | 12.0 | 0.00 | 0.00 | 0.00 | 82 | 1007.1 |
| 20260506182517 | 58 | 180 | 5.0 | 10.0 | 0.00 | 0.00 | 0.00 | 82 | 1007.4 |
| 20260506181517 | 58 | 158 | 5.0 | 9.0 | 0.00 | 0.00 | 0.00 | 81 | 1007.5 |
| 20260506180517 | 58 | 135 | 4.0 | 9.0 | 0.00 | 0.00 | 0.00 | 81 | 1007.5 |
| 20260506175517 | 58 | 158 | 4.0 | 7.0 | 0.00 | 0.00 | 0.00 | 81 | 1007.6 |
| 20260506174517 | 59 | 135 | 4.0 | 7.0 | 0.00 | 0.00 | 0.00 | 81 | 1007.7 |
| 20260506173517 | 59 | 135 | 4.0 | 7.0 | 0.00 | 0.00 | 0.00 | 81 | 1007.9 |
| 20260506172537 | 59 | 135 | 4.0 | 9.0 | 0.00 | 0.00 | 0.00 | 81 | 1008.0 |
| 20260506171517 | 59 | 135 | 3.0 | 7.0 | 0.00 | 0.00 | 0.00 | 80 | 1008.1 |
| 20260506170517 | 59 | 180 | 3.0 | 7.0 | 0.00 | 0.00 | 0.00 | 81 | 1008.3 |
| 20260506165517 | 59 | 135 | 4.0 | 10.0 | 0.00 | 0.00 | 0.00 | 81 | 1008.5 |
| 20260506164537 | 60 | 158 | 4.0 | 9.0 | 0.00 | 0.00 | 0.00 | 80 | 1008.7 |
| 20260506163517 | 60 | 135 | 3.0 | 6.0 | 0.00 | 0.00 | 0.00 | 79 | 1008.8 |
| 20260506162517 | 61 | 158 | 3.0 | 4.0 | 0.00 | 0.00 | 0.00 | 79 | 1009.0 |
| 20260506161537 | 61 | 180 | 3.0 | 7.0 | 0.00 | 0.00 | 0.00 | 79 | 1009.2 |
| 20260506160517 | 60 | 180 | 3.0 | 6.0 | 0.00 | 0.00 | 0.00 | 81 | 1009.0 |
| 20260506155517 | 60 | 180 | 4.0 | 9.0 | 0.00 | 0.00 | 0.00 | 80 | 1009.4 |
| 20260506154517 | 60 | 180 | 4.0 | 9.0 | 0.00 | 0.00 | 0.00 | 81 | 1009.5 |
| 20260506153516 | 60 | 158 | 5.0 | 9.0 | 0.00 | 0.00 | 0.00 | 80 | 1009.5 |
| 20260506152519 | 60 | 158 | 5.0 | 9.0 | 0.00 | 0.00 | 0.00 | 80 | 1009.4 |
| 20260506151516 | 61 | 203 | 4.0 | 9.0 | 0.00 | 0.00 | 0.00 | 80 | 1009.2 |
| 20260506150516 | 60 | 158 | 5.0 | 10.0 | 0.00 | 0.00 | 0.00 | 80 | 1008.9 |
| 20260506145536 | 60 | 135 | 4.0 | 12.0 | 0.00 | 0.00 | 0.00 | 80 | 1008.7 |
| 20260506144517 | 61 | 158 | 5.0 | 10.0 | 0.00 | 0.00 | 0.00 | 79 | 1008.9 |
| 20260506143516 | 60 | 158 | 4.0 | 8.0 | 0.00 | 0.00 | 0.00 | 80 | 1009.2 |
| 20260506142556 | 60 | 158 | 3.0 | 6.0 | 0.00 | 0.00 | 0.00 | 80 | 1009.5 |
| 20260506141516 | 60 | 158 | 4.0 | 8.0 | 0.00 | 0.00 | 0.00 | 81 | 1009.7 |
| 20260506140516 | 59 | 135 | 3.0 | 6.0 | 0.00 | 0.00 | 0.00 | 82 | 1009.6 |
| 20260506135516 | 58 | 180 | 2.0 | 5.0 | 0.00 | 0.00 | 0.00 | 83 | 1009.7 |
| 20260506134516 | 59 | 180 | 4.0 | 7.0 | 0.00 | 0.00 | 0.00 | 82 | 1009.7 |
| 20260506133516 | 59 | 135 | 3.0 | 7.0 | 0.00 | 0.00 | 0.00 | 82 | 1009.4 |
| 20260506132516 | 59 | 180 | 3.0 | 5.0 | 0.00 | 0.00 | 0.00 | 81 | 1009.3 |
| 20260506131516 | 59 | 158 | 3.0 | 9.0 | 0.00 | 0.00 | 0.00 | 81 | 1009.2 |
| 20260506130516 | 59 | 203 | 3.0 | 5.0 | 0.00 | 0.00 | 0.00 | 82 | 1009.2 |
| 20260506125516 | 58 | 135 | 3.0 | 7.0 | 0.00 | 0.00 | 0.00 | 82 | 1009.4 |
| 20260506124516 | 58 | 158 | 2.0 | 5.0 | 0.00 | 0.00 | 0.00 | 83 | 1009.6 |
| 20260506123516 | 57 | 135 | 2.0 | 4.0 | 0.00 | 0.00 | 0.00 | 84 | 1009.6 |
| 20260506122536 | 57 | 135 | 2.0 | 3.0 | 0.00 | 0.00 | 0.00 | 84 | 1009.6 |
| 20260506121516 | 57 | 113 | 2.0 | 4.0 | 0.00 | 0.00 | 0.00 | 84 | 1009.5 |
| 20260506120516 | 56 | 113 | 2.0 | 4.0 | 0.00 | 0.00 | 0.00 | 85 | 1009.6 |
| 20260506115516 | 56 | 113 | 1.0 | 4.0 | 0.00 | 0.00 | 0.00 | 85 | 1010.0 |
| 20260506114516 | 55 | 135 | 1.0 | 2.0 | 0.00 | 0.00 | 0.00 | 86 | 1009.8 |
| 20260506113516 | 55 | 135 | 2.0 | 4.0 | 0.00 | 0.00 | 0.00 | 86 | 1010.4 |
| 20260506112516 | 55 | 113 | 1.0 | 2.0 | 0.00 | 0.00 | 0.00 | 86 | 1010.3 |
| 20260506111516 | 54 | 113 | 1.0 | 3.0 | 0.00 | 0.00 | 0.00 | 86 | 1010.1 |
| 20260506110517 | 54 | 113 | 2.0 | 4.0 | 0.00 | 0.00 | 0.00 | 87 | 1010.1 |
| 20260506105516 | 54 | 113 | 2.0 | 5.0 | 0.00 | 0.00 | 0.00 | 87 | 1010.0 |